[[{"header":{"parameterUnit":"m.s-1","parameterCategory":1,"la1":30.2991,"la2":30.254,"lo1":-89.0895,"lo2":-89.0444,"dy":0.0017,"dx":0.0017,"nx":28,"ny":28,"refTime":"2024-05-01T21:00:00:Z","depth":0,"parameterNumber":2,"parameterNumberName":"U-component_of_WINDS"},"data":[0,0,0,0,0,0,0,0,0,0,0,0,0,0,0,0,0,0,0,0,0,0,0,0,0,0,0,0,0,0,0,0,0,0,0,0,0,0,0,0,0,0,0,0,0,0,0,0,0,0,0,0,0,0,0,0,0,0,-2.9729,-2.973,0,-2.9754,-2.9754,-2.9754,-2.9713,-2.9711,-2.971,-2.9708,-2.9733,-2.9735,-2.9737,0,0,0,0,0,0,0,0,0,0,0,0,0,-2.9646,-2.9648,-2.9729,-2.973,-2.973,-2.9754,-2.9754,-2.9755,-2.9713,-2.9711,-2.9709,-2.9708,-2.9732,-2.9735,-2.9737,0,0,0,0,0,0,0,0,0,0,0,0,0,-2.9678,-2.9649,-2.9729,-2.9712,-2.9711,-2.9754,-2.9754,-2.9755,-2.9713,-2.9711,-2.9709,-2.9707,-2.9732,-2.9734,-2.9737,-2.9798,0,0,-2.9746,-2.9748,0,0,0,0,0,0,0,0,-2.9676,-2.9681,-2.9714,-2.9713,-2.9712,-2.9728,-2.9734,-2.9769,-2.9714,-2.9712,-2.9708,-2.9706,-2.9733,-2.9736,-2.9745,-2.9799,-2.98,-2.9747,-2.9748,-2.975,-2.9751,0,0,0,0,0,0,0,-2.9674,-2.968,-2.9739,-2.9715,-2.9713,-2.9703,-2.9705,-2.974,-2.9734,-2.9712,-2.9709,-2.9713,-2.9732,-2.9742,-2.9745,-2.9801,-2.9747,-2.9749,-2.9751,-2.9752,-2.9906,-2.9908,0,0,0,0,0,0,-2.9674,-2.9678,-2.9738,-2.974,-2.9688,-2.9706,-2.9709,-2.9725,-2.9734,-2.9733,-2.9715,-2.9711,-2.9738,-2.9742,-2.9746,-2.9817,-2.975,-2.9752,-2.9754,-2.9904,-2.9907,-2.9909,0,0,0,0,0,0,-2.9672,-2.968,-2.9737,-2.9708,-2.9715,-2.971,-2.9729,-2.9727,-2.9737,-2.9736,-2.9734,-2.9726,-2.9737,-2.9742,-2.9785,-2.9817,-2.9754,-2.9756,-2.9901,-2.9905,-2.9908,-2.9961,0,0,0,0,0,0,-2.967,-2.9679,-2.9702,-2.9709,-2.9716,-2.9776,-2.9731,-2.9729,-2.9742,-2.9737,-2.9746,-2.9745,-2.9735,-2.9781,-2.9788,-2.982,-2.9759,-2.9898,-2.9903,-2.9907,-2.9956,-2.9965,-2.9974,0,0,0,0,0,-2.9667,-2.9716,-2.9704,-2.9711,-2.9745,-2.9778,-2.9783,-2.977,-2.9745,-2.9768,-2.9767,-2.9745,-2.9813,-2.9786,-2.9794,-2.9827,-2.9896,-2.9901,-2.9906,-2.9952,-2.9964,-2.9973,0,0,0,0,0,0,-2.9713,-2.9716,-2.9703,-2.9755,-2.9767,-2.9771,-2.98,-2.9783,-2.9802,-2.9796,-2.978,-2.9783,-2.983,-2.9833,-2.9803,-2.9887,-2.985,-2.9857,-2.9882,-2.9893,-2.9902,-2.99,-2.9761,0,0,0,0,0,-2.9729,-2.9756,-2.9758,-2.9804,-2.981,-2.9804,-2.9818,-2.9808,-2.9819,-2.9824,-2.9826,-2.9838,-2.9862,-2.9878,-2.99,-2.9957,-2.9958,-2.9984,-2.9992,-3.0,-3.0005,-3.0035,-3.0047,-2.9926,-2.9926,-2.9926,0,0,-2.9762,-2.9768,-2.9786,-2.9813,-2.9821,-2.9849,-2.9809,-2.984,-2.9861,-2.9829,-2.987,-2.9872,-2.9884,-2.9935,-2.9957,-2.9939,-3.0039,-3.0006,-3.0012,-3.0014,-3.0042,-3.0053,-3.0064,-2.993,-2.9929,-2.9929,0,0,-2.9837,-2.9845,-2.9883,-2.9892,-2.9905,-2.9901,-2.991,-2.9918,-2.9918,-2.996,-2.9936,-2.9961,-3.0003,-3.0012,-3.0022,-3.0103,-3.0083,-3.011,-3.0156,-3.0185,-3.0195,-3.0203,-3.0231,-3.0241,-3.0117,-3.0117,-3.0117,0,-2.9877,-2.9919,-2.9906,-2.9939,-2.9951,-2.9925,-2.9964,-2.9973,-2.9992,-3.0002,-2.9981,-3.0033,-3.004,-3.0092,-3.0112,-3.0121,-3.0131,-3.0108,-3.0194,-3.0203,-3.021,-3.0237,-3.0247,-3.012,-3.0119,-3.0119,-3.0119,0,-2.9967,-2.9996,-3.0026,-3.0045,-3.0062,-3.0098,-3.009,-3.0108,-3.0097,-3.0095,-3.0138,-3.0145,-3.0168,-3.018,-3.0169,-3.0231,-3.0219,-3.0197,-3.016,-3.0225,-3.025,-3.026,-3.0124,-3.0123,-3.0122,-3.0121,0,0,-3.0069,-3.0082,-3.0093,-3.0102,-3.0114,-3.0137,-3.0172,-3.0195,-3.021,-3.0225,-3.0254,-3.029,-3.027,-3.0282,-3.0272,-3.0298,-3.0361,-3.0273,-3.0273,-3.0288,-3.0429,-3.0444,-3.0456,-3.0349,-3.0351,-3.0352,-3.0427,0,-3.0143,-3.0204,-3.0194,-3.0252,-3.0279,-3.0255,-3.0285,-3.0296,-3.0296,-3.0319,-3.0318,-3.0344,-3.0316,-3.0323,-3.0348,-3.0348,-3.0389,-3.0343,-3.0375,-3.0376,-3.0371,-3.0469,-3.0485,-3.0556,-3.0437,-3.0439,-3.044,0,-3.0237,-3.0256,-3.0317,-3.0326,-3.0337,-3.0364,-3.0384,-3.0407,-3.0419,-3.0417,-3.0431,-3.0416,-3.0452,-3.0416,-3.0464,-3.0433,-3.0445,-3.0448,-3.045,-3.0451,-3.0411,-3.0472,-3.0578,-3.0588,-3.0455,-3.0454,-3.0453,0,-3.0305,-3.0345,-3.0387,-3.0395,-3.0407,-3.0427,-3.0432,-3.0443,-3.0457,-3.0475,-3.0484,-3.0506,-3.0518,-3.0535,-3.0527,-3.0502,-3.0577,-3.054,-3.0575,-3.0576,-3.0591,-3.059,-3.07,-3.0602,-3.0601,-3.0601,-3.0601,0,-3.0388,-3.0426,-3.0418,-3.0443,-3.0486,-3.0474,-3.0516,-3.0519,-3.0529,-3.0554,-3.0535,-3.0559,-3.0548,-3.0572,-3.0566,-3.0607,-3.0612,-3.0611,-3.0609,-3.0612,-3.0612,-3.0619,-3.0614,-3.0604,-3.0603,-3.0603,-3.0602,0,-3.047,-3.0466,-3.051,-3.0517,-3.052,-3.0551,-3.0557,-3.0581,-3.058,-3.0613,-3.062,-3.0618,-3.0645,-3.0639,-3.0669,-3.0665,-3.0715,-3.0708,-3.0711,-3.0709,-3.0744,-3.074,-3.0861,-3.0876,-3.077,-3.0771,-3.0772,0,-3.0523,-3.0552,-3.0562,-3.0578,-3.0586,-3.0612,-3.0626,-3.0617,-3.0633,-3.0649,-3.0671,-3.0697,-3.0717,-3.0761,-3.0762,-3.0785,-3.0777,-3.0818,-3.078,-3.0782,-3.0776,-3.0774,-3.0777,-3.0825,-3.0826,-3.0827,-3.0828,0,-3.0616,-3.0613,-3.0635,-3.0657,-3.0675,-3.0692,-3.0707,-3.0721,-3.0712,-3.0732,-3.0759,-3.0775,-3.0805,-3.0831,-3.0852,-3.0858,-3.0841,-3.084,-3.0849,-3.0852,-3.0852,-3.0852,-3.073,-3.0837,-3.0836,-3.0835,-3.0835,-3.0834,-3.0684,-3.0709,-3.072,-3.0746,-3.0756,-3.0771,-3.0793,-3.0795,-3.0818,-3.0842,-3.0835,-3.0867,-3.0879,-3.0906,-3.0914,-3.0938,-3.0923,-3.0937,-3.094,-3.0943,-3.0947,-3.085,-3.0942,-3.0942,-3.0942,-3.0942,-3.0942,0,-3.0776,-3.0782,-3.0806,-3.0827,-3.0848,-3.0831,-3.0847,-3.0865,-3.0893,-3.0905,-3.0925,-3.0957,-3.0982,-3.0986,-3.1009,-3.1028,-3.1021,-3.1034,-3.1032,-3.1034,-3.096,-3.0949,-3.104,-3.104,-3.1039,-3.1039,-3.1039,-3.1039,-3.0826,-3.0866,-3.0865,-3.091,-3.0916,-3.0947,-3.0957,-3.0971,-3.0981,-3.1017,-3.1038,-3.104,-3.1049,-3.1073,-3.1095,-3.1096,-3.1105,-3.1121,-3.1118,-3.1049,-3.1039,-3.103,-3.1019,-3.1123,-3.1123,-3.119,-3.1191,-3.1191]},{"header":{"parameterUnit":"m.s-1","parameterCategory":1,"la1":30.2991,"la2":30.254,"lo1":-89.0895,"lo2":-89.0444,"dy":0.0017,"dx":0.0017,"nx":28,"ny":28,"refTime":"2024-05-01T21:00:00:Z","depth":0,"parameterNumber":3,"parameterNumberName":"V-component_of_WINDS"},"data":[0,0,0,0,0,0,0,0,0,0,0,0,0,0,0,0,0,0,0,0,0,0,0,0,0,0,0,0,0,0,0,0,0,0,0,0,0,0,0,0,0,0,0,0,0,0,0,0,0,0,0,0,0,0,0,0,0,0,3.7338,3.7338,0,3.7359,3.736,3.736,3.7305,3.7303,3.7301,3.73,3.732,3.7322,3.7324,0,0,0,0,0,0,0,0,0,0,0,0,0,3.7247,3.7249,3.7338,3.7338,3.7338,3.7359,3.736,3.736,3.7305,3.7303,3.7301,3.7299,3.7319,3.7322,3.7324,0,0,0,0,0,0,0,0,0,0,0,0,0,3.728,3.725,3.7338,3.7313,3.7311,3.7359,3.736,3.736,3.7306,3.7303,3.73,3.7298,3.7318,3.7321,3.7325,3.7396,0,0,3.7334,3.7336,0,0,0,0,0,0,0,0,3.7278,3.7283,3.7317,3.7315,3.7313,3.7327,3.7335,3.7372,3.7306,3.7308,3.73,3.7297,3.7324,3.7327,3.7336,3.7397,3.7398,3.7335,3.7337,3.7338,3.7339,0,0,0,0,0,0,0,3.7276,3.7282,3.7346,3.7317,3.7315,3.7301,3.7303,3.7342,3.733,3.7307,3.7303,3.7307,3.7323,3.7333,3.7336,3.7398,3.7335,3.7337,3.7339,3.7341,3.752,3.7523,0,0,0,0,0,0,3.7277,3.728,3.7345,3.7347,3.7289,3.7305,3.7307,3.7325,3.7329,3.7328,3.7309,3.7304,3.7329,3.7333,3.7337,3.7422,3.7338,3.7341,3.7343,3.7517,3.7521,3.7524,0,0,0,0,0,0,3.7275,3.7283,3.7345,3.7312,3.7319,3.7309,3.733,3.7327,3.7337,3.7331,3.7328,3.7322,3.7327,3.7332,3.7382,3.7422,3.7342,3.7345,3.7514,3.7518,3.7522,3.7592,0,0,0,0,0,0,3.7273,3.7283,3.731,3.7314,3.7321,3.739,3.7332,3.7329,3.7343,3.7337,3.7343,3.7341,3.7326,3.7378,3.7385,3.7425,3.7348,3.751,3.7516,3.7521,3.7586,3.7598,3.7608,0,0,0,0,0,3.727,3.7328,3.7312,3.732,3.7355,3.7392,3.7397,3.7378,3.7347,3.7374,3.737,3.7341,3.7416,3.7383,3.7391,3.7432,3.7508,3.7514,3.752,3.7581,3.7595,3.7608,0,0,0,0,0,0,3.7328,3.7328,3.731,3.7371,3.7382,3.7383,3.7417,3.7394,3.7414,3.7407,3.7383,3.7385,3.744,3.7441,3.7404,3.7502,3.7456,3.7465,3.75,3.7513,3.7524,3.7523,3.735,0,0,0,0,0,3.7348,3.7379,3.7377,3.7431,3.7438,3.7427,3.7442,3.7428,3.7438,3.7442,3.7441,3.7452,3.7478,3.7496,3.7519,3.7586,3.7586,3.7618,3.7629,3.7638,3.7646,3.7682,3.7696,3.7545,3.7545,3.7544,0,0,3.739,3.7394,3.7414,3.7443,3.745,3.7483,3.7431,3.7467,3.7491,3.7447,3.7495,3.7495,3.7505,3.7564,3.759,3.7567,3.7688,3.7646,3.7654,3.7656,3.769,3.7704,3.7717,3.7549,3.7548,3.7547,0,0,3.7482,3.7488,3.7535,3.7543,3.7555,3.7547,3.7559,3.7563,3.7562,3.761,3.7578,3.7606,3.7651,3.766,3.7671,3.7769,3.7743,3.7777,3.7835,3.7871,3.7883,3.7893,3.7929,3.7942,3.7785,3.7785,3.7785,0,3.7532,3.758,3.7561,3.76,3.7614,3.7578,3.7624,3.7633,3.7652,3.7662,3.7636,3.7694,3.7698,3.7759,3.7783,3.7793,3.7805,3.7776,3.7883,3.7893,3.7902,3.7936,3.7949,3.7789,3.7789,3.7788,3.7788,0,3.7642,3.7676,3.7712,3.7732,3.775,3.7793,3.778,3.78,3.7784,3.778,3.7829,3.7833,3.7858,3.7871,3.7855,3.793,3.7916,3.7887,3.784,3.7921,3.7953,3.7965,3.7795,3.7793,3.7792,3.7791,0,0,3.777,3.7781,3.7795,3.7804,3.7815,3.7841,3.7882,3.7907,3.7925,3.794,3.7974,3.8014,3.7988,3.8,3.7985,3.8017,3.8095,3.7984,3.7983,3.8005,3.8179,3.8201,3.8216,3.8078,3.8081,3.8082,3.8178,0,3.7862,3.7934,3.7919,3.7989,3.8021,3.7987,3.8023,3.8034,3.8031,3.8057,3.8053,3.8083,3.8045,3.8053,3.8082,3.8079,3.813,3.8072,3.811,3.8111,3.8108,3.8232,3.8255,3.8345,3.819,3.8192,3.8194,0,3.7979,3.7999,3.8073,3.8081,3.8093,3.8126,3.8149,3.8174,3.8186,3.8181,3.8196,3.8176,3.8217,3.817,3.8226,3.8188,3.8202,3.8203,3.8206,3.8209,3.8157,3.8238,3.8373,3.8387,3.8212,3.8211,3.821,0,3.8066,3.8112,3.8163,3.8171,3.8181,3.8205,3.821,3.822,3.8236,3.8256,3.8266,3.829,3.8303,3.8322,3.8308,3.8275,3.8367,3.8319,3.8365,3.8365,3.8385,3.8384,3.8524,3.8395,3.8394,3.8394,3.8394,0,3.817,3.8217,3.8202,3.8233,3.8285,3.8267,3.8318,3.8319,3.8328,3.8359,3.8331,3.836,3.8341,3.8369,3.8358,3.8407,3.8413,3.8411,3.8407,3.8413,3.8414,3.8422,3.8416,3.8398,3.8397,3.8396,3.8396,0,3.8276,3.8268,3.8321,3.8327,3.8329,3.8367,3.8372,3.8401,3.8396,3.8436,3.8444,3.8437,3.8468,3.8457,3.849,3.8483,3.8545,3.8534,3.8542,3.8539,3.8585,3.8581,3.8736,3.8756,3.8613,3.8614,3.8616,0,3.8343,3.8379,3.8389,3.8408,3.8416,3.8446,3.8464,3.8448,3.8466,3.8484,3.8511,3.854,3.8562,3.8614,3.8611,3.8637,3.8626,3.8678,3.8629,3.8635,3.8627,3.8625,3.8629,3.8688,3.869,3.8691,3.8692,0,3.8463,3.8458,3.8484,3.851,3.8532,3.8551,3.8567,3.8584,3.8569,3.8592,3.8624,3.8642,3.8677,3.8706,3.8729,3.8734,3.8711,3.8708,3.872,3.8726,3.873,3.8729,3.8569,3.8704,3.8703,3.8702,3.8701,3.8701,3.8552,3.8583,3.8595,3.8626,3.8637,3.8653,3.8681,3.8681,3.8708,3.8736,3.8724,3.8762,3.8774,3.8803,3.8811,3.884,3.8819,3.8837,3.8841,3.8846,3.8852,3.8725,3.8844,3.8844,3.8843,3.8843,3.8843,0,3.8671,3.8678,3.8707,3.8731,3.8756,3.8733,3.875,3.8772,3.8806,3.8819,3.8842,3.888,3.8909,3.891,3.8936,3.896,3.895,3.8967,3.8965,3.8967,3.8868,3.8855,3.8975,3.8975,3.8975,3.8975,3.8975,3.8975,3.8736,3.8787,3.8784,3.884,3.8846,3.8883,3.8895,3.8911,3.8921,3.8965,3.8989,3.899,3.8998,3.9026,3.9051,3.9051,3.9062,3.9084,3.9079,3.8987,3.8974,3.8961,3.8949,3.9086,3.9086,3.9175,3.9176,3.9177]}]]